This demonstration page uses our WeatherBlox Daily Observations layout. Learn more.

Left ArrowRight Arrow

36.17497, -115.13722

Hourly Observations for August 19, 2017

Temp ( °F °C ) Dew Point ( °F °C ) Humidity (%) Winds ( mph kmh ) Pressure ( in mb ) Visibility ( mi km ) Precip ( " mm )
12:53 am 00:53 Clear 84 28.9 38 3.3 19 19 WNW 3 6 29.86 1011 10 16.0934 N/A
1:53 am 01:53 Clear 83 28.3 39 3.9 21 21 NW 5 7 29.85 1011 10 16.0934 N/A
2:53 am 02:53 Clear 81 27.2 37 2.8 21 21 NW 6 9 29.85 1011 10 16.0934 N/A
3:53 am 03:53 Clear 79 26.1 36 2.2 21 21 NNW 7 11 29.85 1011 10 16.0934 N/A
4:53 am 04:53 Clear 77 25 37 2.8 24 24 NNW 5 7 29.86 1011 10 16.0934 N/A
5:53 am 05:53 Clear 76 24.4 35 1.7 23 23 NNW 7 11 29.87 1012 10 16.0934 N/A
6:53 am 06:53 Sunny 76 24.4 37 2.8 24 24 NNW 5 7 29.89 1012 10 16.0934 N/A
7:53 am 07:53 Sunny 81 27.2 38 3.3 21 21 NNW 5 7 29.9 1013 10 16.0934 N/A
8:53 am 08:53 Sunny 88 31.1 36 2.2 16 16 N N/A 29.91 1013 10 16.0934 N/A
9:53 am 09:53 Sunny 91 32.8 35 1.7 14 14 ESE 6 9 29.91 1013 10 16.0934 N/A
10:53 am 10:53 Sunny 95 35 36 2.2 13 13 ESE 8 13 29.9 1013 10 16.0934 N/A
11:53 am 11:53 Sunny 98 36.7 34 1.1 11 11 SE 12 19 29.88 1012 10 16.0934 N/A
12:53 pm 12:53 Sunny 100 37.8 33 0.6 10 10 S 13 20 29.86 1011 10 16.0934 N/A
1:53 pm 13:53 Sunny 100 37.8 33 0.6 10 10 SSE 8 13 29.84 1010 10 16.0934 N/A
2:53 pm 14:53 Sunny 100 37.8 33 0.6 10 10 E 8 13 29.81 1009 10 16.0934 N/A
3:53 pm 15:53 Sunny 101 38.3 34 1.1 10 10 WSW 6 9 29.78 1008 10 16.0934 N/A
4:53 pm 16:53 Sunny 101 38.3 37 2.8 11 11 VRB 5 7 29.76 1008 10 16.0934 N/A
5:53 pm 17:53 Sunny 100 37.8 37 2.8 11 11 S 8 13 29.75 1007 10 16.0934 N/A
6:53 pm 18:53 Sunny 99 37.2 34 1.1 10 10 SSE 18 30 29.75 1007 10 16.0934 N/A
7:53 pm 19:53 Clear 96 35.6 34 1.1 11 11 SE 15 24 29.76 1008 10 16.0934 N/A
8:53 pm 20:53 Clear 95 35 35 1.7 12 12 SSE 14 22 29.78 1008 10 16.0934 N/A
9:53 pm 21:53 Clear 94 34.4 37 2.8 14 14 S 13 20 29.8 1009 10 16.0934 N/A
10:53 pm 22:53 Clear 92 33.3 36 2.2 14 14 SSW 7 11 29.8 1009 10 16.0934 N/A
11:53 pm 23:53 Clear 89 31.7 39 3.9 17 17 S 8 13 29.81 1010 10 16.0934 N/A

Powered by AerisWeather